CST,Max TemperatureF,Mean TemperatureF,Min TemperatureF,Max Dew PointF,MeanDew PointF,Min DewpointF,Max Humidity, Mean Humidity, Min Humidity, Max Sea Level PressureIn, Mean Sea Level PressureIn, Min Sea Level PressureIn, Max VisibilityMiles, Mean VisibilityMiles, Min VisibilityMiles, Max Wind SpeedMPH, Mean Wind SpeedMPH, Max Gust SpeedMPH,PrecipitationIn, CloudCover, Events, WindDirDegrees
2013-2-1,23,14,4,19,5,-4,84,67,49,30.50,30.36,30.18,10,8,2,23,11,30,0.04,4,Snow,248
2013-2-2,35,28,20,23,18,14,92,78,63,30.20,30.12,30.06,10,8,1,21,9,25,0.02,7,Snow,274
2013-2-3,33,27,21,25,19,14,100,72,43,30.16,30.07,29.99,10,8,2,25,10,35,0.01,6,Snow,255
2013-2-4,46,37,27,27,23,16,85,65,45,30.00,29.90,29.82,10,10,10,21,11,25,0.00,3,,284
2013-2-5,46,35,24,32,26,21,92,73,53,30.14,29.98,29.88,10,10,7,21,9,26,0.00,3,,270
2013-2-6,47,34,21,32,27,18,92,73,53,30.25,30.17,30.08,10,9,6,18,8,24,0.00,0,,174
2013-2-7,41,39,36,40,36,30,100,85,70,30.06,29.96,29.87,10,5,1,23,8,28,0.34,8,Rain,197
2013-2-8,36,32,28,34,26,21,100,86,72,30.42,30.27,30.06,10,9,4,21,9,29,0.00,8,,360
2013-2-9,39,34,29,33,26,22,85,77,69,30.40,30.26,30.05,10,10,9,21,12,29,0.01,5,Rain,143
2013-2-10,51,45,38,48,41,33,100,83,65,30.06,29.74,29.57,10,8,1,36,19,47,0.40,7,Rain-Thunderstorm,164
2013-2-11,45,37,28,30,25,22,78,64,49,30.16,29.97,29.70,10,10,10,39,19,53,0.00,3,,278
2013-2-12,38,31,24,28,25,21,92,76,59,30.19,30.09,29.96,10,10,8,10,3,14,0.00,0,,278
2013-2-13,50,39,28,33,29,25,100,71,42,29.96,29.86,29.80,10,9,6,20,7,25,0.00,0,,234
2013-2-14,48,39,30,32,30,28,92,73,53,30.06,29.92,29.78,10,10,10,22,10,26,0.00,3,,272
2013-2-15,37,30,22,28,17,11,85,60,35,30.27,30.20,30.08,10,10,10,20,11,24,0.00,3,,318
2013-2-16,32,24,15,14,11,6,74,57,39,30.28,30.23,30.18,10,10,10,18,8,29,0.00,0,,313
2013-2-17,41,28,14,24,16,9,80,60,40,30.24,30.13,29.94,10,10,10,22,12,29,0.00,0,,128
2013-2-18,57,43,29,46,35,20,92,74,56,29.92,29.70,29.52,10,9,3,35,23,44,0.10,5,Rain,215
2013-2-19,29,24,19,18,12,5,69,61,52,30.30,30.05,29.86,10,10,10,30,20,43,T,6,Snow,285
2013-2-20,25,17,8,15,7,1,77,59,40,30.45,30.38,30.32,10,10,10,17,8,21,0.00,0,,358
2013-2-21,32,24,15,31,23,12,92,80,68,30.38,30.07,29.85,10,4,0,26,14,36,0.56,6,Fog-Rain-Snow,91
2013-2-22,34,30,26,32,27,19,92,81,69,30.05,29.90,29.79,10,7,2,24,13,29,T,8,Rain-Snow,220
2013-2-23,29,22,15,20,17,13,92,80,68,30.05,30.03,30.01,10,10,7,14,7,16,0.00,1,,248
2013-2-24,39,27,14,25,20,11,100,76,52,30.17,30.12,30.05,10,8,5,8,3,10,0.00,0,,130
2013-2-25,45,35,24,33,28,21,88,73,57,30.12,30.01,29.81,10,9,6,22,12,29,T,1,Snow,72
2013-2-26,36,34,32,33,31,30,100,88,75,29.74,29.53,29.43,10,5,0,32,15,41,1.31,8,Rain-Snow,38
2013-2-27,33,32,31,31,30,28,100,93,85,29.84,29.73,29.62,10,3,1,17,11,22,0.17,8,Snow,285
2013-2-28,35,33,31,32,30,28,92,89,85,30.10,30.01,29.84,10,6,1,15,9,18,0.04,8,Snow,307